EW7074 Weather Reports


Display with metric or nautical units.
time (UTC)temp
F
wind
direction
speed
MPH
gust
MPH
rain 1hr
in
rain 24hr
in
rain mn
in
humidity
%
barometer
mb
20200814201129 67 316 2.0 4.0 0.00 0.00 0.00 89 1008.5
20200814200617 67 333 2.0 7.0 0.00 0.00 0.00 88 1007.9
20200814200106 67 276 2.0 7.0 0.00 0.00 0.00 88 1008.1
20200814195543 67 260 2.0 7.0 0.00 0.00 0.00 88 1007.6
20200814195030 67 123 2.0 7.0 0.00 0.00 0.00 88 1006.9
20200814194528 67 129 1.0 4.0 0.00 0.00 0.00 89 1006.7
20200814194027 67 223 2.0 5.0 0.00 0.00 0.00 89 1006.8
20200814193521 67 235 2.0 5.0 0.00 0.00 0.00 89 1007.0
20200814193022 67 282 1.0 3.0 0.00 0.00 0.00 88 1006.9
20200814192518 67 282 0.0 2.0 0.00 0.00 0.00 88 1007.0
20200814192010 67 282 1.0 5.0 0.00 0.00 0.00 88 1007.1
20200814191513 67 282 1.0 5.0 0.00 0.00 0.00 88 1007.3
20200814191008 67 276 1.0 3.0 0.00 0.00 0.00 87 1007.4
20200814190510 67 240 1.0 3.0 0.00 0.00 0.00 87 1007.3
20200814190009 67 240 1.0 3.0 0.00 0.01 0.00 87 1007.1
20200814185507 67 240 1.0 4.0 0.00 0.01 0.00 87 1007.0
20200814185006 67 240 2.0 4.0 0.00 0.01 0.00 86 1007.1
20200814184509 67 240 2.0 5.0 0.00 0.01 0.00 86 1007.0
20200814184008 67 239 3.0 5.0 0.00 0.01 0.00 85 1006.9
20200814183508 68 272 3.0 6.0 0.00 0.01 0.00 85 1006.8
20200814183010 68 285 4.0 7.0 0.00 0.01 0.00 84 1007.4
20200814182506 69 284 3.0 7.0 0.00 0.01 0.00 84 1007.6
20200814182012 69 281 1.0 6.0 0.00 0.01 0.00 83 1007.4
20200814181507 69 207 1.0 3.0 0.00 0.01 0.00 83 1007.1
20200814181004 69 207 2.0 4.0 0.00 0.01 0.00 82 1007.1
20200814180509 69 195 1.0 4.0 0.00 0.01 0.00 82 1006.9
20200814180000 69 165 1.0 4.0 0.00 0.01 0.00 82 1007.0
20200814175459 69 104 2.0 6.0 0.00 0.01 0.00 82 1007.1
20200814174953 69 104 3.0 6.0 0.00 0.01 0.00 82 1007.1
20200814174455 69 191 3.0 6.0 0.00 0.01 0.00 82 1007.3
20200814173948 69 230 2.0 6.0 0.00 0.01 0.00 81 1007.4
20200814173445 69 247 1.0 3.0 0.00 0.01 0.00 81 1007.5
20200814172918 69 218 1.0 3.0 0.00 0.01 0.00 82 1007.6
20200814172417 69 218 2.0 6.0 0.00 0.01 0.00 82 1007.9
20200814171912 69 218 3.0 6.0 0.00 0.01 0.00 81 1007.7
20200814171412 69 227 2.0 7.0 0.00 0.01 0.00 81 1007.5
20200814170913 69 226 3.0 7.0 0.00 0.01 0.00 81 1007.4
20200814170414 69 216 4.0 8.0 0.00 0.01 0.00 82 1007.4
20200814165909 69 216 6.0 8.0 0.00 0.01 0.00 81 1007.5
20200814165413 69 218 6.0 9.0 0.00 0.01 0.00 81 1007.8
20200814164906 69 228 5.0 9.0 0.00 0.01 0.00 81 1008.0
20200814164403 69 237 4.0 8.0 0.00 0.01 0.00 81 1008.3
20200814163900 69 248 3.0 8.0 0.00 0.01 0.00 80 1008.6
20200814163353 70 169 1.0 2.0 0.00 0.01 0.00 79 1008.7
20200814162848 70 168 1.0 3.0 0.00 0.01 0.00 78 1008.9
20200814162350 70 168 2.0 5.0 0.00 0.01 0.00 79 1008.9
20200814161845 70 226 3.0 6.0 0.00 0.01 0.00 80 1008.9
20200814161335 70 175 2.0 7.0 0.00 0.01 0.00 81 1008.7
20200814160835 69 221 2.0 7.0 0.00 0.01 0.00 80 1008.7
20200814160325 69 111 4.0 7.0 0.00 0.01 0.00 81 1008.8
20200814155821 69 214 5.0 10.0 0.00 0.01 0.00 81 1009.1
20200814155316 69 216 4.0 10.0 0.00 0.01 0.00 80 1009.6
20200814154811 69 225 3.0 6.0 0.00 0.01 0.00 79 1009.8
20200814154308 70 204 2.0 5.0 0.00 0.01 0.00 79 1010.1
20200814153759 69 180 2.0 5.0 0.00 0.01 0.00 80 1010.4
20200814153233 69 234 3.0 5.0 0.00 0.01 0.00 80 1010.7
20200814152725 69 251 2.0 5.0 0.00 0.01 0.00 80 1010.8
20200814152217 69 243 1.0 5.0 0.00 0.01 0.00 80 1011.0
20200814151709 68 217 2.0 4.0 0.00 0.01 0.00 80 1011.0
20200814151210 68 218 2.0 5.0 0.00 0.01 0.00 80 1011.2
20200814150710 68 224 3.0 5.0 0.00 0.01 0.00 78 1011.3
20200814150159 68 239 2.0 6.0 0.00 0.01 0.00 78 1011.4
20200814145657 69 144 2.0 6.0 0.00 0.01 0.00 78 1011.5
20200814145156 68 67 2.0 4.0 0.00 0.01 0.00 78 1011.7
20200814144648 68 67 1.0 4.0 0.00 0.01 0.00 79 1011.9
20200814144138 67 67 1.0 2.0 0.00 0.01 0.00 81 1012.1
20200814143637 67 67 2.0 5.0 0.00 0.01 0.00 81 1012.3
20200814143127 66 67 2.0 5.0 0.00 0.01 0.00 83 1012.3
20200814142615 66 68 2.0 5.0 0.00 0.01 0.00 83 1012.2
20200814142100 65 121 1.0 5.0 0.00 0.01 0.00 84 1012.4
20200814141557 65 185 1.0 4.0 0.00 0.01 0.00 85 1012.6
20200814141055 64 72 0.0 3.0 0.00 0.01 0.00 86 1012.8
20200814140553 64 71 0.0 3.0 0.00 0.01 0.00 86 1013.0
20200814140038 64 70 0.0 1.0 0.00 0.01 0.00 87 1013.1
20200814135525 63 70 0.0 2.0 0.00 0.01 0.00 87 1013.2
20200814135012 63 70 0.0 3.0 0.00 0.01 0.00 88 1013.4
20200814134511 63 70 1.0 3.0 0.00 0.01 0.00 88 1013.4
20200814133958 63 70 1.0 4.0 0.00 0.01 0.00 89 1013.4
20200814133447 62 72 1.0 5.0 0.00 0.01 0.00 90 1013.5
20200814132935 62 52 1.0 4.0 0.00 0.01 0.00 91 1013.5
20200814132421 62 40 1.0 3.0 0.00 0.01 0.00 92 1013.4
20200814131912 62 40 1.0 4.0 0.00 0.01 0.00 92 1013.3
20200814131408 62 37 2.0 6.0 0.00 0.01 0.00 93 1013.3
20200814130859 61 37 3.0 6.0 0.00 0.01 0.00 93 1013.4
20200814130347 61 79 3.0 5.0 0.00 0.01 0.00 94 1013.3
20200814125840 61 68 4.0 6.0 0.00 0.01 0.00 95 1013.3
20200814125330 61 103 3.0 7.0 0.00 0.01 0.00 95 1013.2
20200814124827 61 77 3.0 7.0 0.00 0.01 0.00 96 1013.2
20200814124325 60 93 3.0 5.0 0.00 0.01 0.00 96 1013.3
20200814123748 60 94 4.0 8.0 0.00 0.01 0.00 97 1013.3
20200814123244 60 91 4.0 7.0 0.00 0.01 0.00 97 1013.3
20200814122726 60 84 3.0 7.0 0.00 0.01 0.00 97 1013.4
20200814122209 60 112 3.0 7.0 0.00 0.01 0.00 97 1013.4
20200814121707 59 77 3.0 6.0 0.00 0.01 0.00 98 1013.4
20200814121151 59 81 3.0 6.0 0.00 0.01 0.00 98 1013.4
20200814120642 59 71 1.0 5.0 0.00 0.01 0.00 98 1013.5
20200814120131 59 71 1.0 5.0 0.00 0.01 0.00 98 1013.7
20200814115620 59 41 1.0 4.0 0.00 0.01 0.00 98 1013.7
20200814115108 59 62 1.0 3.0 0.00 0.01 0.00 98 1013.7
20200814114553 59 60 1.0 3.0 0.00 0.01 0.00 98 1013.7
20200814114048 59 62 1.0 5.0 0.00 0.01 0.00 98 1013.7
20200814113540 58 62 2.0 6.0 0.00 0.01 0.00 98 1013.6
20200814113034 58 67 2.0 6.0 0.00 0.01 0.00 98 1013.6
20200814112604 58 20 1.0 3.0 0.00 0.01 0.00 98 1013.7
20200814112031 58 16 0.0 2.0 0.00 0.01 0.00 98 1013.7
20200814111529 58 16 0.0 1.0 0.00 0.01 0.00 98 1013.7
20200814111032 58 14 0.0 2.0 0.00 0.01 0.00 98 1013.7
20200814110531 58 15 0.0 3.0 0.00 0.01 0.00 98 1013.6
20200814110025 58 15 0.0 3.0 0.00 0.01 0.00 98 1013.6
20200814105544 58 328 0.0 2.0 0.00 0.01 0.00 98 1013.7
20200814105003 58 327 0.0 2.0 0.00 0.01 0.00 98 1013.7
20200814104509 58 231 0.0 1.0 0.00 0.01 0.00 98 1013.7
20200814103958 58 231 0.0 1.0 0.00 0.01 0.00 98 1013.7
20200814103459 58 231 0.0 2.0 0.00 0.01 0.00 98 1013.7
20200814102958 58 231 0.0 2.0 0.00 0.01 0.00 98 1013.7
20200814102459 58 231 0.0 2.0 0.00 0.01 0.00 98 1013.6
20200814101959 58 231 0.0 2.0 0.00 0.01 0.00 98 1013.4
20200814101456 58 231 0.0 2.0 0.00 0.01 0.00 98 1013.4
20200814100956 58 231 1.0 3.0 0.00 0.01 0.00 98 1013.5
20200814100456 58 233 1.0 3.0 0.00 0.01 0.00 98 1013.5
20200814095954 58 234 1.0 3.0 0.00 0.01 0.00 98 1013.4
20200814095455 58 234 1.0 3.0 0.00 0.01 0.00 98 1013.5
20200814094953 58 235 0.0 2.0 0.00 0.01 0.00 98 1013.5
20200814094454 58 235 0.0 1.0 0.00 0.01 0.00 98 1013.5
20200814093950 58 236 0.0 0.0 0.00 0.01 0.00 98 1013.5
20200814093452 58 236 0.0 0.0 0.00 0.01 0.00 98 1013.4
20200814092949 58 236 0.0 0.0 0.00 0.01 0.00 98 1013.5
20200814092447 58 236 0.0 0.0 0.00 0.01 0.00 98 1013.4
20200814091946 58 236 0.0 0.0 0.00 0.01 0.00 98 1013.4
20200814091446 58 236 0.0 0.0 0.00 0.01 0.00 98 1013.4
20200814090949 58 236 0.0 0.0 0.00 0.01 0.00 98 1013.3
20200814090446 58 236 0.0 0.0 0.00 0.01 0.00 98 1013.2
20200814085951 58 236 0.0 0.0 0.00 0.01 0.00 98 1013.3
20200814085444 58 235 0.0 0.0 0.00 0.01 0.00 98 1013.1
20200814084945 58 236 0.0 0.0 0.00 0.01 0.00 98 1013.0
20200814084441 58 236 0.0 0.0 0.00 0.01 0.00 98 1012.9
20200814083935 58 236 0.0 0.0 0.00 0.01 0.00 98 1012.9
20200814083433 58 236 0.0 0.0 0.00 0.01 0.00 98 1012.7
20200814082934 58 235 0.0 0.0 0.00 0.01 0.00 98 1012.7
20200814082436 58 236 0.0 2.0 0.00 0.01 0.00 98 1012.7
20200814081931 58 236 0.0 2.0 0.00 0.01 0.00 98 1012.7
20200814081425 58 235 0.0 1.0 0.00 0.01 0.00 98 1012.7
20200814080920 58 236 0.0 0.0 0.00 0.01 0.00 98 1012.7
20200814080421 58 236 0.0 1.0 0.00 0.01 0.00 98 1012.7
20200814075914 58 235 0.0 1.0 0.00 0.01 0.00 98 1012.7
20200814075405 58 236 0.0 1.0 0.00 0.01 0.00 98 1012.7
20200814074854 58 235 0.0 1.0 0.00 0.01 0.00 98 1012.7
20200814074339 58 236 0.0 2.0 0.00 0.01 0.00 98 1012.6
20200814073830 58 236 0.0 2.0 0.00 0.01 0.00 98 1012.6
20200814073320 58 236 0.0 2.0 0.00 0.01 0.00 98 1012.6
20200814072819 58 236 0.0 2.0 0.00 0.01 0.00 98 1012.5
20200814072309 58 236 0.0 2.0 0.00 0.01 0.00 98 1012.2
20200814071804 58 236 0.0 1.0 0.00 0.01 0.00 98 1012.1
20200814071249 58 236 0.0 1.0 0.00 0.01 0.00 98 1012.1
20200814070738 58 236 0.0 1.0 0.00 0.01 0.00 98 1012.1
20200814070237 58 236 0.0 1.0 0.00 0.01 0.00 98 1012.1
20200814065736 58 236 0.0 1.0 0.00 0.01 0.00 98 1011.9
20200814065221 58 236 0.0 1.0 0.00 0.01 0.00 98 1011.6
20200814064720 58 235 0.0 1.0 0.00 0.01 0.00 98 1011.6
20200814064218 58 235 0.0 0.0 0.00 0.01 0.00 98 1011.6
20200814063718 58 235 0.0 1.0 0.00 0.01 0.00 98 1011.6
20200814063158 58 235 0.0 2.0 0.00 0.01 0.00 98 1011.6
20200814062647 58 235 0.0 2.0 0.00 0.01 0.00 98 1011.7
20200814062145 58 235 0.0 0.0 0.00 0.01 0.00 98 1011.9
20200814061634 58 235 0.0 1.0 0.00 0.01 0.00 98 1012.0
20200814061131 58 235 0.0 1.0 0.00 0.01 0.00 98 1012.1
20200814060621 58 235 0.0 0.0 0.00 0.01 0.00 98 1012.2
20200814060115 58 235 0.0 0.0 0.00 0.01 0.00 98 1012.2
20200814055606 58 235 0.0 1.0 0.00 0.01 0.00 98 1012.2
20200814055101 58 235 0.0 1.0 0.00 0.01 0.00 98 1012.3
20200814054545 58 235 0.0 2.0 0.00 0.01 0.00 98 1012.4
20200814054042 58 235 0.0 2.0 0.00 0.01 0.00 98 1012.6
20200814053524 58 235 0.0 1.0 0.00 0.01 0.00 98 1012.7
20200814053023 58 235 0.0 0.0 0.00 0.01 0.00 98 1012.7
20200814052508 58 235 0.0 1.0 0.00 0.01 0.00 98 1012.7
20200814051958 58 235 1.0 3.0 0.00 0.01 0.00 98 1012.7
20200814051452 58 235 1.0 3.0 0.00 0.01 0.00 98 1012.8
20200814050941 58 235 0.0 2.0 0.00 0.01 0.00 98 1013.0
20200814050431 58 235 2.0 3.0 0.00 0.01 0.00 98 1013.0
20200814045917 58 235 2.0 3.0 0.00 0.01 0.00 98 1013.0
20200814045401 58 235 2.0 3.0 0.00 0.01 0.00 98 1013.0
20200814044844 58 235 2.0 3.0 0.00 0.01 0.00 98 1013.1
20200814044337 58 236 1.0 3.0 0.00 0.01 0.00 98 1013.1
20200814043824 58 236 1.0 2.0 0.00 0.01 0.00 98 1013.1
20200814043319 58 236 0.0 2.0 0.00 0.01 0.00 98 1013.1
20200814042804 58 236 0.0 2.0 0.00 0.01 0.00 98 1013.1
20200814042252 58 236 0.0 0.0 0.00 0.02 0.00 98 1013.2
20200814041740 58 236 0.0 0.0 0.00 0.02 0.00 98 1013.3
20200814041231 58 236 0.0 0.0 0.00 0.02 0.00 97 1013.3
20200814040721 58 236 0.0 2.0 0.00 0.02 0.00 97 1013.3
20200814040222 58 236 0.0 2.0 0.00 0.03 0.00 97 1013.3
20200814035724 58 236 0.0 2.0 0.00 0.03 0.00 97 1013.3
20200814035220 58 236 0.0 2.0 0.00 0.04 0.00 97 1013.3
20200814034719 58 236 0.0 2.0 0.00 0.04 0.00 97 1013.2
20200814034219 58 236 1.0 2.0 0.00 0.04 0.00 97 1013.3
20200814033719 58 236 0.0 2.0 0.00 0.04 0.00 97 1013.4
20200814033217 58 236 0.0 2.0 0.00 0.04 0.00 97 1013.3
20200814032717 58 236 1.0 3.0 0.00 0.04 0.00 97 1013.3
20200814032215 58 236 1.0 3.0 0.00 0.04 0.00 97 1013.3
20200814031715 58 234 1.0 3.0 0.00 0.05 0.00 97 1013.3
20200814031212 58 234 2.0 4.0 0.00 0.05 0.00 97 1013.4
20200814030710 58 232 3.0 4.0 0.00 0.05 0.00 97 1013.2
20200814030209 58 233 3.0 4.0 0.00 0.05 0.00 97 1013.2
20200814025706 58 257 3.0 5.0 0.00 0.05 0.05 97 1013.4
20200814025207 58 258 2.0 5.0 0.00 0.05 0.05 97 1013.5
20200814024704 58 266 1.0 5.0 0.00 0.05 0.05 97 1013.5
20200814024205 58 277 1.0 3.0 0.00 0.05 0.05 97 1013.6
20200814023647 58 277 2.0 3.0 0.00 0.05 0.05 97 1013.6
20200814023148 58 277 2.0 3.0 0.00 0.05 0.05 97 1013.6
20200814022645 58 277 1.0 5.0 0.00 0.05 0.05 97 1013.5
20200814022126 58 277 1.0 5.0 0.00 0.05 0.05 97 1013.6
20200814021610 58 278 0.0 2.0 0.00 0.05 0.05 97 1013.6
20200814021102 58 278 0.0 2.0 0.00 0.05 0.05 97 1013.6
20200814020546 58 278 0.0 2.0 0.00 0.06 0.05 97 1013.5
20200814020045 58 278 0.0 2.0 0.00 0.06 0.05 97 1013.5
20200814015535 58 278 1.0 2.0 0.00 0.06 0.05 97 1013.5
20200814015030 58 278 0.0 2.0 0.00 0.06 0.05 97 1013.6
20200814014521 58 278 0.0 3.0 0.00 0.06 0.05 97 1013.6
20200814014029 58 278 1.0 3.0 0.00 0.07 0.05 97 1013.6
20200814013516 58 278 1.0 3.0 0.00 0.07 0.05 97 1013.6
20200814012951 58 278 1.0 3.0 0.00 0.08 0.05 97 1013.6
20200814012439 58 278 0.0 3.0 0.00 0.08 0.05 97 1013.6
20200814011929 58 220 0.0 2.0 0.00 0.09 0.05 97 1013.7
20200814011412 58 220 0.0 0.0 0.00 0.09 0.05 97 1013.8
20200814010909 58 220 0.0 1.0 0.00 0.09 0.05 97 1013.7
20200814010406 58 220 0.0 0.0 0.00 0.09 0.05 97 1013.8
20200814005853 58 220 0.0 1.0 0.00 0.09 0.05 97 1013.8
20200814005345 58 220 0.0 2.0 0.00 0.09 0.05 97 1013.9
20200814004841 58 220 0.0 2.0 0.00 0.09 0.05 97 1013.8
20200814004339 58 220 0.0 2.0 0.00 0.10 0.05 97 1013.8
20200814003835 58 220 0.0 2.0 0.00 0.10 0.05 97 1013.8
20200813230634 58 220 0.0 2.0 0.00 0.20 0.05 96 1013.0
20200813230112 58 220 0.0 2.0 0.00 0.20 0.05 96 1012.9
20200813225609 58 220 0.0 1.0 0.00 0.22 0.05 96 1012.9
20200813225108 58 220 0.0 2.0 0.00 0.25 0.05 96 1013.0
20200813224605 58 220 1.0 3.0 0.00 0.29 0.05 96 1012.8
20200813224103 58 220 2.0 3.0 0.00 0.33 0.05 96 1012.8
20200813223604 58 220 2.0 3.0 0.00 0.35 0.05 96 1012.8
20200813223101 58 220 2.0 4.0 0.00 0.36 0.05 96 1012.7
20200813222601 58 220 3.0 4.0 0.00 0.37 0.05 96 1012.7
20200813222100 58 220 3.0 5.0 0.00 0.38 0.05 95 1012.6
20200813221557 58 218 3.0 5.0 0.00 0.39 0.05 95 1012.5
20200813221056 58 218 3.0 5.0 0.00 0.40 0.05 95 1012.5
20200813220556 58 210 3.0 5.0 0.00 0.41 0.05 95 1012.4
20200813220056 58 218 2.0 4.0 0.00 0.41 0.05 95 1012.5
20200813215554 59 218 2.0 4.0 0.00 0.42 0.05 95 1012.5
20200813215050 59 218 2.0 4.0 0.00 0.43 0.05 95 1012.6
20200813214541 59 218 1.0 4.0 0.00 0.46 0.05 94 1012.5
20200813214029 59 218 1.0 3.0 0.00 0.48 0.05 94 1012.5
20200813213526 59 218 1.0 3.0 0.00 0.50 0.05 94 1012.5
20200813213026 59 218 0.0 2.0 0.00 0.53 0.05 94 1012.5
20200813212519 59 218 1.0 2.0 0.00 0.56 0.05 94 1012.5
20200813211953 59 218 1.0 3.0 0.00 0.60 0.05 94 1012.5
20200813211453 59 218 2.0 3.0 0.00 0.64 0.05 94 1012.4
20200813210951 59 218 1.0 3.0 0.00 0.69 0.05 94 1012.4
20200813210452 59 218 0.0 3.0 0.00 0.73 0.05 93 1012.3
20200813205951 59 218 0.0 1.0 0.00 0.79 0.05 93 1012.2
20200813205451 59 218 0.0 2.0 0.00 0.80 0.05 93 1012.2
20200813204941 59 218 0.0 2.0 0.00 0.81 0.05 93 1012.1
20200813204440 59 0.0 1.0 0.00 0.81 0.05 93
20200813203824 59 218 1.0 2.0 0.00 0.81 0.05 93 1011.9
20200813203327 59 218 0.0 2.0 0.00 0.81 0.05 93 1011.8
20200813202826 59 218 0.0 2.0 0.00 0.81 0.05 93 1011.9
20200813202324 59 218 1.0 2.0 0.00 0.81 0.05 93 1011.8
20200813201825 59 218 2.0 4.0 0.00 0.82 0.05 92 1011.7